Regional Weather Roundup
Issued by NWS Raleigh/Durham, NC

Home | Current Version | Previous Version | Text Only | Print | Product List | Glossary On
Versions: 1 2 3 4 5 6 7 8 9 10 11 12 13 14 15 16 17 18 19 20 21 22 23 24 25 26 27
000
ASUS42 KRAH 250110
RWRRAH
NORTH CAROLINA WEATHER ROUNDUP
NATIONAL WEATHER SERVICE RALEIGH NC
900 PM EDT FRI OCT 24 2014

NOTE: "FAIR" INDICATES FEW OR NO CLOUDS BELOW 12,000 FEET WITH NO
SIGNIFICANT WEATHER AND/OR OBSTRUCTIONS TO VISIBILITY.

NCZ001-053-055-056-065-067-250200-
WESTERN NORTH CAROLINA

CITY           SKY/WX    TMP DP  RH WIND       PRES   REMARKS
ASHEVILLE      CLEAR     54  37  52 N9        30.07R
JEFFERSON      CLEAR     52  32  45 NW5       30.06S
MORGANTON      CLEAR     45  45  99 CALM      30.07R
HICKORY        CLEAR     53  47  79 NW6       30.02R
RUTHERFORDTON  CLEAR     50  47  92 CALM      30.03S
MOUNT AIRY     PTCLDY    55  42  60 N3        30.03R
BOONE          CLEAR     50  36  57 W7        30.08R
$$

NCZ021-022-025-041-071-084-088-250200-
CENTRAL NORTH CAROLINA

CITY           SKY/WX    TMP DP  RH WIND       PRES   REMARKS
CHARLOTTE      PTCLDY    54  44  69 W3        30.01R
GREENSBORO     MOCLDY    56  41  57 CALM      29.99R
WINSTON-SALEM  PTCLDY    59  40  49 W3        30.01R
RALEIGH-DURHAM PTCLDY    53  49  86 CALM      29.99R
FORT BRAGG     MOCLDY    55  52  90 CALM      29.98R
FAYETTEVILLE   PTCLDY    54  50  86 CALM      29.98R
BURLINGTON     CLEAR     51  44  77 CALM      29.99R
LAURINBURG     MOCLDY    53  49  86 CALM      29.99S
$$

NCZ011-015-027-028-043-044-047-080-103-250200-
NORTHEASTERN NORTH CAROLINA

CITY           SKY/WX    TMP DP  RH WIND       PRES   REMARKS
ROCKY MT-WILSO CLEAR     51  48  89 CALM      29.97S
GREENVILLE     CLEAR     54  52  94 CALM      29.99S FOG
WASHINGTON     CLEAR     53  50  89 CALM      29.98R
ELIZABETH CITY CLEAR     56  46  69 W5        29.95R
MANTEO         CLEAR     60  54  80 W3        29.95R
CAPE HATTERAS  CLEAR     58  55  90 NW3       29.96R
$$

NCZ078-087-090-091-093-098-101-250200-
SOUTHEASTERN NORTH CAROLINA

CITY           SKY/WX    TMP DP  RH WIND       PRES   REMARKS
LUMBERTON      MOCLDY    55  50  83 CALM      29.97F
GOLDSBORO      MOCLDY    56  55  94 CALM      29.96S
KINSTON        PTCLDY    50  50 100 CALM      29.98S
KENANSVILLE    CLEAR     49  48  95 CALM      29.99S
NEW BERN       CLEAR     56  50  80 CALM      29.99R
CHERRY POINT   CLEAR     56  51  84 CALM      29.98S
BEAUFORT       CLEAR     60  52  74 W5        29.98R
JACKSONVILLE   CLEAR     52  50  93 CALM      29.98S
WILMINGTON     CLEAR     53  51  93 CALM      29.99S
$$




USA.gov is the U.S. government's official web portal to all federal, state and local government web resources and services.